VOYAGER:1:PRINTED,ON:,1-OCT-01:10:54:11:V179053S32
START_TIME,STOP_TIME,SECTOR,SCAN_DIR,E44FLUX,E44UNC,E45FLUX,E45UNC,E37FLUX,E37UNC,P31FLUX,P31UNC
1979-02-22 00:00:11.770 ,1979-02-22 00:00:17.710 ,3,1,8.70,1.51,0.497,0.352,-1.00,-1.00,2.114E-02,4.145E-03
1979-02-22 00:00:18.140 ,1979-02-22 00:00:41.710 ,4,1,7.50,0.720,0.497,0.176,-1.00,-1.00,2.394E-02,2.166E-03
1979-02-22 00:00:42.140 ,1979-02-22 00:01:05.710 ,5,1,9.30,0.802,0.373,0.152,-1.00,-1.00,2.002E-02,2.052E-03
1979-02-22 00:01:06.140 ,1979-02-22 00:01:29.710 ,6,1,10.1,0.838,0.373,0.152,-1.00,-1.00,1.805E-02,1.882E-03
1979-02-22 00:01:30.140 ,1979-02-22 00:01:53.710 ,7,1,12.1,0.915,0.435,0.164,-1.00,-1.00,1.748E-02,1.885E-03
1979-02-22 00:01:54.140 ,1979-02-22 00:02:35.710 ,8,1,10.9,0.659,0.462,0.128,-1.00,-1.00,1.790E-02,1.455E-03
1979-02-22 00:02:35.770 ,1979-02-22 00:02:41.710 ,8,-1,7.91,1.44,0.249,0.249,-1.00,-1.00,1.707E-02,3.484E-03
1979-02-22 00:02:42.140 ,1979-02-22 00:03:05.710 ,7,-1,13.0,0.949,0.435,0.164,-1.00,-1.00,2.114E-02,2.071E-03
1979-02-22 00:03:06.140 ,1979-02-22 00:03:29.710 ,6,-1,11.2,0.882,0.559,0.186,-1.00,-1.00,2.002E-02,1.980E-03
1979-02-22 00:03:30.140 ,1979-02-22 00:03:53.710 ,5,-1,10.6,0.858,0.497,0.176,-1.00,-1.00,2.061E-02,2.009E-03
1979-02-22 00:03:54.140 ,1979-02-22 00:04:17.710 ,4,-1,8.12,0.750,0.622,0.196,-1.00,-1.00,2.012E-02,2.022E-03
1979-02-22 00:04:18.140 ,1979-02-22 00:04:41.710 ,3,-1,10.5,0.851,0.311,0.139,-1.00,-1.00,1.981E-02,2.043E-03
1979-02-22 00:04:42.140 ,1979-02-22 00:05:05.710 ,2,-1,10.5,0.851,0.622,0.196,-1.00,-1.00,2.198E-02,2.074E-03
1979-02-22 00:05:05.770 ,1979-02-22 00:05:30.140 ,1,-1,10.3,1.51,0.332,0.166,-1.00,-1.00,2.390E-02,3.686E-03
1979-02-22 00:05:30.140 ,1979-02-22 00:05:53.710 ,1,1,8.81,0.781,0.497,0.176,-1.00,-1.00,1.890E-02,1.958E-03
1979-02-22 00:05:54.140 ,1979-02-22 00:06:17.710 ,2,1,10.3,0.847,0.186,0.108,-1.00,-1.00,2.021E-02,1.990E-03
1979-02-22 00:06:18.140 ,1979-02-22 00:06:41.710 ,3,1,8.74,0.779,0.186,0.108,-1.00,-1.00,2.256E-02,2.140E-03
1979-02-22 00:06:42.140 ,1979-02-22 00:07:05.710 ,4,1,7.98,0.765,0.622,0.196,-1.00,-1.00,2.023E-02,2.065E-03
1979-02-22 00:07:06.140 ,1979-02-22 00:07:29.710 ,5,1,7.98,0.765,0.497,0.176,-1.00,-1.00,2.375E-02,2.156E-03
1979-02-22 00:07:30.140 ,1979-02-22 00:07:53.710 ,6,1,11.3,0.886,0.435,0.164,-1.00,-1.00,2.080E-02,2.018E-03
1979-02-22 00:07:54.140 ,1979-02-22 00:08:17.710 ,7,1,12.1,0.917,0.186,0.108,-1.00,-1.00,1.962E-02,1.962E-03
1979-02-22 00:08:18.140 ,1979-02-22 00:08:59.710 ,8,1,10.3,0.641,0.426,0.123,-1.00,-1.00,1.937E-02,1.529E-03
1979-02-22 00:08:59.770 ,1979-02-22 00:09:05.710 ,8,-1,10.5,1.67,0.249,0.249,-1.00,-1.00,1.850E-02,3.627E-03
1979-02-22 00:09:06.140 ,1979-02-22 00:09:29.710 ,7,-1,9.00,0.835,0.249,0.124,-1.00,-1.00,2.041E-02,1.999E-03
1979-02-22 00:09:30.140 ,1979-02-22 00:09:53.710 ,6,-1,9.51,0.811,0.373,0.152,-1.00,-1.00,2.218E-02,2.086E-03
1979-02-22 00:09:54.140 ,1979-02-22 00:10:17.710 ,5,-1,9.79,0.823,0.435,0.164,-1.00,-1.00,2.108E-02,2.108E-03
1979-02-22 00:10:18.140 ,1979-02-22 00:10:41.710 ,4,-1,7.08,0.700,0.249,0.124,-1.00,-1.00,1.904E-02,1.930E-03
1979-02-22 00:10:42.140 ,1979-02-22 00:11:05.710 ,3,-1,9.16,0.797,0.559,0.186,-1.00,-1.00,2.297E-02,2.201E-03
1979-02-22 00:11:06.140 ,1979-02-22 00:11:29.710 ,2,-1,10.1,0.838,0.186,0.108,-1.00,-1.00,2.178E-02,2.066E-03
1979-02-22 00:11:29.770 ,1979-02-22 00:11:54.140 ,1,-1,11.2,1.57,0.332,0.166,-1.00,-1.00,1.650E-02,3.064E-03
1979-02-22 00:11:54.140 ,1979-02-22 00:12:17.710 ,1,1,10.4,0.849,0.622,0.196,-1.00,-1.00,2.119E-02,2.037E-03
1979-02-22 00:12:18.140 ,1979-02-22 00:12:41.710 ,2,1,8.81,0.781,6.216E-02,6.216E-02,-1.00,-1.00,2.296E-02,2.120E-03
1979-02-22 00:12:42.140 ,1979-02-22 00:13:05.710 ,3,1,8.19,0.754,0.373,0.152,-1.00,-1.00,2.473E-02,2.202E-03
1979-02-22 00:13:06.140 ,1979-02-22 00:13:29.710 ,4,1,7.69,0.750,0.435,0.164,-1.00,-1.00,2.394E-02,2.166E-03
1979-02-22 00:13:30.140 ,1979-02-22 00:13:53.710 ,5,1,8.95,0.788,6.216E-02,6.216E-02,-1.00,-1.00,2.500E-02,2.254E-03
1979-02-22 00:13:54.140 ,1979-02-22 00:14:17.710 ,6,1,10.6,0.858,0.435,0.164,-1.00,-1.00,2.355E-02,2.149E-03
1979-02-22 00:14:18.140 ,1979-02-22 00:14:41.710 ,7,1,9.58,0.814,0.186,0.108,-1.00,-1.00,2.424E-02,2.257E-03
1979-02-22 00:14:42.140 ,1979-02-22 00:15:23.710 ,8,1,11.5,0.678,0.355,0.112,-1.00,-1.00,2.010E-02,1.558E-03
1979-02-22 00:15:23.770 ,1979-02-22 00:15:29.710 ,8,-1,8.44,1.49,0.000E+00,0.000E+00,-1.00,-1.00,1.778E-02,3.557E-03
1979-02-22 00:15:30.140 ,1979-02-22 00:15:53.710 ,7,-1,11.7,0.898,0.435,0.164,-1.00,-1.00,1.982E-02,1.970E-03
1979-02-22 00:15:54.140 ,1979-02-22 00:16:17.710 ,6,-1,11.0,0.872,0.249,0.124,-1.00,-1.00,2.012E-02,2.022E-03
1979-02-22 00:16:18.140 ,1979-02-22 00:16:41.710 ,5,-1,8.94,0.809,0.559,0.186,-1.00,-1.00,2.316E-02,2.131E-03
1979-02-22 00:16:42.140 ,1979-02-22 00:17:05.710 ,4,-1,8.19,0.754,0.186,0.108,-1.00,-1.00,1.813E-02,1.954E-03
1979-02-22 00:17:06.140 ,1979-02-22 00:17:29.710 ,3,-1,10.9,0.868,0.497,0.176,-1.00,-1.00,2.145E-02,2.165E-03
1979-02-22 00:17:30.140 ,1979-02-22 00:17:53.710 ,2,-1,10.5,0.851,0.684,0.206,-1.00,-1.00,1.861E-02,2.018E-03
1979-02-22 00:17:53.770 ,1979-02-22 00:18:18.140 ,1,-1,13.2,1.57,0.249,0.144,-1.00,-1.00,2.333E-02,3.642E-03
1979-02-22 00:18:18.140 ,1979-02-22 00:18:41.710 ,1,1,10.8,0.887,0.622,0.196,-1.00,-1.00,2.433E-02,2.182E-03
1979-02-22 00:18:42.140 ,1979-02-22 00:19:05.710 ,2,1,8.72,0.798,0.373,0.152,-1.00,-1.00,2.093E-02,2.061E-03
1979-02-22 00:19:06.140 ,1979-02-22 00:19:29.710 ,3,1,10.8,0.866,0.373,0.152,-1.00,-1.00,2.237E-02,2.094E-03
1979-02-22 00:19:30.140 ,1979-02-22 00:19:53.710 ,4,1,7.77,0.734,0.311,0.139,-1.00,-1.00,2.337E-02,2.177E-03
1979-02-22 00:19:54.140 ,1979-02-22 00:20:17.710 ,5,1,9.65,0.817,0.622,0.196,-1.00,-1.00,1.809E-02,1.916E-03
1979-02-22 00:20:18.140 ,1979-02-22 00:20:41.710 ,6,1,10.6,0.858,0.249,0.124,-1.00,-1.00,2.236E-02,2.131E-03
1979-02-22 00:20:42.140 ,1979-02-22 00:21:05.710 ,7,1,10.3,0.847,0.249,0.124,-1.00,-1.00,2.053E-02,2.040E-03
1979-02-22 00:21:06.140 ,1979-02-22 00:21:47.710 ,8,1,10.7,0.655,0.391,0.118,-1.00,-1.00,2.149E-02,1.578E-03
1979-02-22 00:21:47.770 ,1979-02-22 00:21:53.710 ,8,-1,8.44,1.49,0.249,0.249,-1.00,-1.00,2.602E-02,4.598E-03
1979-02-22 00:21:54.140 ,1979-02-22 00:22:17.710 ,7,-1,12.1,0.917,0.559,0.186,-1.00,-1.00,1.897E-02,1.998E-03
1979-02-22 00:22:18.140 ,1979-02-22 00:22:41.710 ,6,-1,9.37,0.805,0.249,0.124,-1.00,-1.00,2.185E-02,2.230E-03
1979-02-22 00:22:42.140 ,1979-02-22 00:23:05.710 ,5,-1,9.09,0.794,0.311,0.139,-1.00,-1.00,2.236E-02,2.131E-03
1979-02-22 00:23:06.140 ,1979-02-22 00:23:29.710 ,4,-1,8.26,0.756,0.559,0.186,-1.00,-1.00,2.195E-02,2.109E-03
1979-02-22 00:23:30.140 ,1979-02-22 00:23:53.710 ,3,-1,7.40,0.735,0.311,0.139,-1.00,-1.00,1.970E-02,2.075E-03
1979-02-22 00:23:54.140 ,1979-02-22 00:24:17.710 ,2,-1,9.99,0.832,0.559,0.186,-1.00,-1.00,2.361E-02,2.228E-03
1979-02-22 00:24:17.770 ,1979-02-22 00:24:42.140 ,1,-1,9.89,1.47,0.414,0.185,-1.00,-1.00,2.529E-02,3.996E-03
1979-02-22 00:24:42.140 ,1979-02-22 00:25:05.710 ,1,1,12.8,0.940,0.373,0.152,-1.00,-1.00,2.276E-02,2.187E-03
1979-02-22 00:25:06.140 ,1979-02-22 00:25:29.710 ,2,1,10.4,0.849,0.373,0.152,-1.00,-1.00,1.850E-02,1.936E-03
1979-02-22 00:25:30.140 ,1979-02-22 00:25:53.710 ,3,1,8.33,0.760,0.186,0.108,-1.00,-1.00,2.198E-02,2.074E-03
1979-02-22 00:25:54.140 ,1979-02-22 00:26:17.710 ,4,1,8.68,0.775,0.249,0.124,-1.00,-1.00,2.215E-02,2.122E-03
1979-02-22 00:26:18.140 ,1979-02-22 00:26:41.710 ,5,1,9.16,0.797,0.497,0.176,-1.00,-1.00,1.982E-02,1.970E-03
1979-02-22 00:26:42.140 ,1979-02-22 00:27:05.710 ,6,1,11.5,0.893,0.124,8.790E-02,-1.00,-1.00,2.236E-02,2.131E-03
1979-02-22 00:27:06.140 ,1979-02-22 00:27:29.710 ,7,1,11.8,0.903,0.559,0.186,-1.00,-1.00,2.134E-02,2.081E-03
1979-02-22 00:27:30.140 ,1979-02-22 00:28:11.710 ,8,1,11.7,0.685,0.391,0.118,-1.00,-1.00,2.182E-02,1.605E-03
1979-02-22 00:28:11.770 ,1979-02-22 00:28:17.710 ,8,-1,12.9,1.85,0.000E+00,0.000E+00,-1.00,-1.00,2.490E-02,4.205E-03
1979-02-22 00:28:18.140 ,1979-02-22 00:28:41.710 ,7,-1,12.7,0.939,0.622,0.196,-1.00,-1.00,2.473E-02,2.202E-03
1979-02-22 00:28:42.140 ,1979-02-22 00:29:05.710 ,6,-1,11.5,0.891,0.373,0.152,-1.00,-1.00,2.255E-02,2.219E-03
1979-02-22 00:29:06.140 ,1979-02-22 00:29:29.710 ,5,-1,11.5,0.891,0.497,0.176,-1.00,-1.00,1.882E-02,2.029E-03
1979-02-22 00:29:30.140 ,1979-02-22 00:29:53.710 ,4,-1,7.70,0.731,0.497,0.176,-1.00,-1.00,1.855E-02,1.977E-03
1979-02-22 00:29:54.140 ,1979-02-22 00:30:17.710 ,3,-1,11.1,0.876,0.249,0.124,-1.00,-1.00,2.002E-02,2.052E-03
1979-02-22 00:30:18.140 ,1979-02-22 00:30:41.710 ,2,-1,10.3,0.844,0.186,0.108,-1.00,-1.00,1.992E-02,2.011E-03
1979-02-22 00:30:41.770 ,1979-02-22 00:31:06.140 ,1,-1,10.7,1.42,0.663,0.234,-1.00,-1.00,2.163E-02,3.507E-03
1979-02-22 00:31:06.140 ,1979-02-22 00:31:29.710 ,1,1,9.08,0.815,0.311,0.139,-1.00,-1.00,2.337E-02,2.177E-03
1979-02-22 00:31:30.140 ,1979-02-22 00:31:53.710 ,2,1,9.72,0.820,0.559,0.186,-1.00,-1.00,2.215E-02,2.122E-03
1979-02-22 00:31:54.140 ,1979-02-22 00:32:17.710 ,3,1,9.09,0.794,0.435,0.164,-1.00,-1.00,1.497E-02,1.775E-03
1979-02-22 00:32:18.140 ,1979-02-22 00:32:41.710 ,4,1,7.84,0.738,0.311,0.139,-1.00,-1.00,2.002E-02,1.980E-03
1979-02-22 00:32:42.140 ,1979-02-22 00:33:05.710 ,5,1,9.16,0.818,0.311,0.139,-1.00,-1.00,2.419E-02,2.215E-03
1979-02-22 00:33:06.140 ,1979-02-22 00:33:29.710 ,6,1,9.72,0.820,0.249,0.124,-1.00,-1.00,2.213E-02,2.158E-03
1979-02-22 00:33:30.140 ,1979-02-22 00:33:53.710 ,7,1,11.0,0.872,0.497,0.176,-1.00,-1.00,2.192E-02,2.148E-03
1979-02-22 00:33:54.140 ,1979-02-22 00:34:35.710 ,8,1,11.4,0.675,0.604,0.146,-1.00,-1.00,2.431E-02,1.694E-03
1979-02-22 00:34:35.770 ,1979-02-22 00:34:41.710 ,8,-1,11.1,1.71,1.24,0.556,-1.00,-1.00,2.846E-02,4.495E-03
1979-02-22 00:34:42.140 ,1979-02-22 00:35:05.710 ,7,-1,11.8,0.903,0.559,0.186,-1.00,-1.00,2.218E-02,2.086E-03
1979-02-22 00:35:06.140 ,1979-02-22 00:35:29.710 ,6,-1,9.99,0.832,0.311,0.139,-1.00,-1.00,2.297E-02,2.201E-03
1979-02-22 00:35:30.140 ,1979-02-22 00:35:53.710 ,5,-1,10.2,0.840,0.186,0.108,-1.00,-1.00,1.829E-02,1.926E-03
1979-02-22 00:35:54.140 ,1979-02-22 00:36:17.710 ,4,-1,8.12,0.750,0.373,0.152,-1.00,-1.00,2.195E-02,2.109E-03
1979-02-22 00:36:18.140 ,1979-02-22 00:36:41.710 ,3,-1,9.72,0.820,0.311,0.139,-1.00,-1.00,2.041E-02,1.999E-03
1979-02-22 00:36:42.140 ,1979-02-22 00:37:05.710 ,2,-1,8.50,0.789,0.497,0.176,-1.00,-1.00,2.080E-02,2.018E-03
1979-02-22 00:37:05.770 ,1979-02-22 00:37:30.140 ,1,-1,9.67,1.46,0.497,0.203,-1.00,-1.00,2.675E-02,3.899E-03
1979-02-22 00:37:30.140 ,1979-02-22 00:37:53.710 ,1,1,10.6,0.858,0.186,0.108,-1.00,-1.00,2.296E-02,2.120E-03
1979-02-22 00:37:54.140 ,1979-02-22 00:38:17.710 ,2,1,9.58,0.814,0.311,0.139,-1.00,-1.00,2.053E-02,2.040E-03
1979-02-22 00:38:18.140 ,1979-02-22 00:38:41.710 ,3,1,8.54,0.770,0.684,0.206,-1.00,-1.00,2.093E-02,2.061E-03
1979-02-22 00:38:42.140 ,1979-02-22 00:39:05.710 ,4,1,7.84,0.738,0.622,0.196,-1.00,-1.00,1.707E-02,1.862E-03
1979-02-22 00:39:06.140 ,1979-02-22 00:39:29.710 ,5,1,8.72,0.798,0.373,0.152,-1.00,-1.00,2.150E-02,2.126E-03
1979-02-22 00:39:30.140 ,1979-02-22 00:39:53.710 ,6,1,8.20,0.774,0.373,0.152,-1.00,-1.00,1.882E-02,2.029E-03
1979-02-22 00:39:54.140 ,1979-02-22 00:40:17.710 ,7,1,11.8,0.903,0.497,0.176,-1.00,-1.00,2.237E-02,2.094E-03
1979-02-22 00:40:18.140 ,1979-02-22 00:40:59.710 ,8,1,11.1,0.667,0.284,0.100,-1.00,-1.00,2.254E-02,1.599E-03
1979-02-22 00:40:59.770 ,1979-02-22 00:41:05.710 ,8,-1,11.6,1.75,0.746,0.431,-1.00,-1.00,2.276E-02,4.300E-03
1979-02-22 00:41:06.140 ,1979-02-22 00:41:29.710 ,7,-1,11.2,0.880,0.373,0.152,-1.00,-1.00,2.459E-02,2.233E-03
1979-02-22 00:41:30.140 ,1979-02-22 00:41:53.710 ,6,-1,11.1,0.876,0.311,0.139,-1.00,-1.00,1.798E-02,2.023E-03
1979-02-22 00:41:54.140 ,1979-02-22 00:42:17.710 ,5,-1,9.85,0.827,0.124,8.790E-02,-1.00,-1.00,1.571E-02,1.890E-03
1979-02-22 00:42:18.140 ,1979-02-22 00:42:41.710 ,4,-1,8.40,0.762,0.559,0.186,-1.00,-1.00,2.093E-02,2.061E-03
1979-02-22 00:42:42.140 ,1979-02-22 00:43:05.710 ,3,-1,8.12,0.750,0.249,0.124,-1.00,-1.00,2.002E-02,1.980E-03
1979-02-22 00:43:06.140 ,1979-02-22 00:43:29.710 ,2,-1,10.3,0.844,0.497,0.176,-1.00,-1.00,1.882E-02,2.029E-03
1979-02-22 00:43:29.770 ,1979-02-22 00:43:54.140 ,1,-1,10.1,1.49,0.580,0.219,-1.00,-1.00,1.764E-02,3.167E-03
1979-02-22 00:43:54.140 ,1979-02-22 00:44:17.710 ,1,1,9.67,0.842,0.186,0.108,-1.00,-1.00,2.041E-02,1.999E-03
1979-02-22 00:44:18.140 ,1979-02-22 00:44:41.710 ,2,1,9.02,0.791,0.311,0.139,-1.00,-1.00,2.234E-02,2.168E-03
1979-02-22 00:44:42.140 ,1979-02-22 00:45:05.710 ,3,1,9.16,0.797,0.249,0.124,-1.00,-1.00,2.215E-02,2.122E-03
1979-02-22 00:45:06.140 ,1979-02-22 00:45:29.710 ,4,1,7.47,0.739,0.373,0.152,-1.00,-1.00,1.602E-02,1.837E-03
1979-02-22 00:45:30.140 ,1979-02-22 00:45:53.710 ,5,1,10.1,0.835,0.186,0.108,-1.00,-1.00,2.087E-02,2.097E-03
1979-02-22 00:45:54.140 ,1979-02-22 00:46:17.710 ,6,1,10.8,0.864,0.249,0.124,-1.00,-1.00,2.340E-02,2.219E-03
1979-02-22 00:46:18.140 ,1979-02-22 00:46:41.710 ,7,1,12.5,0.931,0.373,0.152,-1.00,-1.00,2.033E-02,2.033E-03
1979-02-22 00:46:42.140 ,1979-02-22 00:47:23.710 ,8,1,11.4,0.684,0.284,0.100,-1.00,-1.00,1.980E-02,1.531E-03
1979-02-22 00:47:23.770 ,1979-02-22 00:47:29.710 ,8,-1,10.8,1.69,0.497,0.352,-1.00,-1.00,2.276E-02,4.023E-03
1979-02-22 00:47:30.140 ,1979-02-22 00:47:53.710 ,7,-1,10.5,0.855,0.311,0.139,-1.00,-1.00,1.773E-02,1.970E-03
1979-02-22 00:47:54.140 ,1979-02-22 00:48:17.710 ,6,-1,10.5,0.855,0.559,0.186,-1.00,-1.00,2.335E-02,2.138E-03
1979-02-22 00:48:18.140 ,1979-02-22 00:48:41.710 ,5,-1,11.0,0.872,0.435,0.164,-1.00,-1.00,1.768E-02,1.895E-03
1979-02-22 00:48:42.140 ,1979-02-22 00:49:05.710 ,4,-1,9.16,0.797,0.373,0.152,-1.00,-1.00,2.012E-02,2.022E-03
1979-02-22 00:49:06.140 ,1979-02-22 00:49:29.710 ,3,-1,11.0,0.872,0.311,0.139,-1.00,-1.00,1.855E-02,1.977E-03
1979-02-22 00:49:30.140 ,1979-02-22 00:49:47.710 ,2,-1,9.32,0.937,0.249,0.144,-1.00,-1.00,1.436E-02,1.973E-03
1979-02-22 00:49:47.770 ,1979-02-22 00:50:11.770 ,9,0,9.02,0.791,0.398,0.141,0.000E+00,0.000E+00,2.375E-02,2.156E-03
1979-02-22 00:50:11.770 ,1979-02-22 00:50:18.140 ,1,-1,10.8,1.54,0.497,0.249,-1.00,-1.00,1.707E-02,3.284E-03
1979-02-22 00:50:18.140 ,1979-02-22 00:50:41.710 ,1,1,8.64,0.796,0.559,0.186,-1.00,-1.00,2.215E-02,2.122E-03
1979-02-22 00:50:42.140 ,1979-02-22 00:51:05.710 ,2,1,12.6,0.932,0.559,0.186,-1.00,-1.00,2.073E-02,2.050E-03
1979-02-22 00:51:06.140 ,1979-02-22 00:51:29.710 ,3,1,9.65,0.817,0.124,8.790E-02,-1.00,-1.00,1.931E-02,1.979E-03
1979-02-22 00:51:30.140 ,1979-02-22 00:51:53.710 ,4,1,7.91,0.740,0.311,0.139,-1.00,-1.00,2.236E-02,2.131E-03
1979-02-22 00:51:54.140 ,1979-02-22 00:52:17.710 ,5,1,10.5,0.851,0.311,0.139,-1.00,-1.00,2.134E-02,2.081E-03
1979-02-22 00:52:18.140 ,1979-02-22 00:52:41.710 ,6,1,11.1,0.876,0.497,0.176,-1.00,-1.00,1.911E-02,1.970E-03
1979-02-22 00:52:42.140 ,1979-02-22 00:53:05.710 ,7,1,10.4,0.849,0.622,0.196,-1.00,-1.00,1.834E-02,1.966E-03
1979-02-22 00:53:06.140 ,1979-02-22 00:53:47.710 ,8,1,9.97,0.640,0.355,0.112,-1.00,-1.00,1.968E-02,1.525E-03
1979-02-22 00:53:47.770 ,1979-02-22 00:53:53.710 ,8,-1,9.23,1.56,0.497,0.352,-1.00,-1.00,2.632E-02,4.327E-03
1979-02-22 00:53:54.140 ,1979-02-22 00:54:17.710 ,7,-1,9.85,0.827,0.311,0.139,-1.00,-1.00,2.198E-02,2.074E-03
1979-02-22 00:54:18.140 ,1979-02-22 00:54:41.710 ,6,-1,9.37,0.805,0.373,0.152,-1.00,-1.00,2.337E-02,2.177E-03
1979-02-22 00:54:42.140 ,1979-02-22 00:55:05.710 ,5,-1,9.99,0.832,0.311,0.139,-1.00,-1.00,2.213E-02,2.158E-03
1979-02-22 00:55:06.140 ,1979-02-22 00:55:29.710 ,4,-1,7.25,0.729,0.124,8.790E-02,-1.00,-1.00,1.884E-02,1.922E-03
1979-02-22 00:55:30.140 ,1979-02-22 00:55:53.710 ,3,-1,9.85,0.827,0.373,0.152,-1.00,-1.00,2.041E-02,1.999E-03
1979-02-22 00:55:54.140 ,1979-02-22 00:56:17.710 ,2,-1,10.0,0.856,0.435,0.164,-1.00,-1.00,1.992E-02,2.011E-03
1979-02-22 00:56:17.770 ,1979-02-22 00:56:42.140 ,1,-1,12.3,1.64,8.288E-02,8.288E-02,-1.00,-1.00,1.935E-02,3.317E-03
1979-02-22 00:56:42.140 ,1979-02-22 00:57:05.710 ,1,1,10.5,0.851,0.186,0.108,-1.00,-1.00,1.626E-02,1.817E-03
1979-02-22 00:57:06.140 ,1979-02-22 00:57:29.710 ,2,1,9.58,0.814,0.186,0.108,-1.00,-1.00,1.749E-02,1.919E-03
1979-02-22 00:57:30.140 ,1979-02-22 00:57:53.710 ,3,1,8.81,0.781,0.186,0.108,-1.00,-1.00,2.215E-02,2.122E-03
1979-02-22 00:57:54.140 ,1979-02-22 00:58:17.710 ,4,1,7.29,0.710,0.373,0.152,-1.00,-1.00,2.317E-02,2.169E-03
1979-02-22 00:58:18.140 ,1979-02-22 00:58:41.710 ,5,1,10.2,0.840,0.311,0.139,-1.00,-1.00,2.257E-02,2.102E-03
1979-02-22 00:58:42.140 ,1979-02-22 00:59:05.710 ,6,1,10.5,0.855,0.435,0.164,-1.00,-1.00,2.014E-02,2.099E-03
1979-02-22 00:59:06.140 ,1979-02-22 00:59:29.710 ,7,1,10.6,0.858,0.186,0.108,-1.00,-1.00,1.897E-02,1.998E-03
1979-02-22 00:59:30.140 ,1979-02-22 00:00:11.710 ,8,1,11.8,0.685,0.284,0.100,-1.00,-1.00,2.095E-02,1.644E-03
1979-02-22 01:00:11.770 ,1979-02-22 01:00:17.710 ,8,-1,11.9,1.77,0.000E+00,0.000E+00,-1.00,-1.00,1.992E-02,3.763E-03
1979-02-22 01:00:18.140 ,1979-02-22 01:00:41.710 ,7,-1,11.9,0.908,0.249,0.124,-1.00,-1.00,2.119E-02,2.037E-03
1979-02-22 01:00:42.140 ,1979-02-22 01:01:05.710 ,6,-1,9.51,0.811,0.249,0.124,-1.00,-1.00,2.236E-02,2.131E-03
1979-02-22 01:01:06.140 ,1979-02-22 01:01:29.710 ,5,-1,10.2,0.840,0.559,0.186,-1.00,-1.00,2.154E-02,2.091E-03
1979-02-22 01:01:30.140 ,1979-02-22 01:01:53.710 ,4,-1,7.70,0.731,0.435,0.164,-1.00,-1.00,2.066E-02,2.085E-03
1979-02-22 01:01:54.140 ,1979-02-22 01:02:17.710 ,3,-1,9.72,0.820,0.311,0.139,-1.00,-1.00,2.087E-02,2.097E-03
1979-02-22 01:02:18.140 ,1979-02-22 01:02:41.710 ,2,-1,9.99,0.832,0.559,0.186,-1.00,-1.00,2.317E-02,2.169E-03
1979-02-22 01:02:41.770 ,1979-02-22 01:03:06.140 ,1,-1,12.1,1.51,0.332,0.166,-1.00,-1.00,1.992E-02,3.364E-03
1979-02-22 01:03:06.140 ,1979-02-22 01:03:29.710 ,1,1,11.2,0.882,0.808,0.224,-1.00,-1.00,2.296E-02,2.120E-03
1979-02-22 01:03:30.140 ,1979-02-22 01:03:53.710 ,2,1,9.79,0.823,0.186,0.108,-1.00,-1.00,1.829E-02,1.926E-03
1979-02-22 01:03:54.140 ,1979-02-22 01:04:17.710 ,3,1,8.42,0.785,0.311,0.139,-1.00,-1.00,2.256E-02,2.140E-03
1979-02-22 01:04:18.140 ,1979-02-22 01:04:41.710 ,4,1,8.81,0.781,0.435,0.164,-1.00,-1.00,1.884E-02,1.922E-03
1979-02-22 01:04:42.140 ,1979-02-22 01:05:05.710 ,5,1,9.65,0.817,0.311,0.139,-1.00,-1.00,2.021E-02,1.990E-03
1979-02-22 01:05:06.140 ,1979-02-22 01:05:29.710 ,6,1,10.7,0.884,0.373,0.152,-1.00,-1.00,2.033E-02,2.033E-03
1979-02-22 01:05:30.140 ,1979-02-22 01:05:53.710 ,7,1,12.6,0.932,0.622,0.196,-1.00,-1.00,1.786E-02,1.870E-03
1979-02-22 01:05:54.140 ,1979-02-22 01:06:35.710 ,8,1,10.9,0.660,0.391,0.118,-1.00,-1.00,2.158E-02,1.598E-03
1979-02-22 01:06:35.770 ,1979-02-22 01:06:41.710 ,8,-1,5.93,1.40,0.497,0.352,-1.00,-1.00,1.921E-02,3.694E-03
1979-02-22 01:06:42.140 ,1979-02-22 01:07:05.710 ,7,-1,11.2,0.880,0.249,0.124,-1.00,-1.00,2.492E-02,2.208E-03
1979-02-22 01:07:06.140 ,1979-02-22 01:07:29.710 ,6,-1,9.92,0.830,0.373,0.152,-1.00,-1.00,2.033E-02,2.033E-03
1979-02-22 01:07:30.140 ,1979-02-22 01:07:53.710 ,5,-1,10.1,0.859,0.559,0.186,-1.00,-1.00,2.041E-02,1.999E-03
1979-02-22 01:07:54.140 ,1979-02-22 01:08:17.710 ,4,-1,8.61,0.772,0.249,0.124,-1.00,-1.00,1.648E-02,1.798E-03
1979-02-22 01:08:18.140 ,1979-02-22 01:08:41.710 ,3,-1,9.51,0.811,0.186,0.108,-1.00,-1.00,2.453E-02,2.192E-03
1979-02-22 01:08:42.140 ,1979-02-22 01:09:05.710 ,2,-1,9.52,0.835,0.249,0.124,-1.00,-1.00,2.296E-02,2.120E-03
1979-02-22 01:09:05.770 ,1979-02-22 01:09:30.140 ,1,-1,12.1,1.51,0.332,0.166,-1.00,-1.00,1.960E-02,3.519E-03
1979-02-22 01:09:30.140 ,1979-02-22 01:09:53.710 ,1,1,9.89,0.850,0.373,0.152,-1.00,-1.00,2.154E-02,2.091E-03
1979-02-22 01:09:54.140 ,1979-02-22 01:10:17.710 ,2,1,9.74,0.843,0.373,0.152,-1.00,-1.00,1.768E-02,1.895E-03
1979-02-22 01:10:18.140 ,1979-02-22 01:10:41.710 ,3,1,11.1,0.876,0.311,0.139,-1.00,-1.00,2.215E-02,2.122E-03
1979-02-22 01:10:42.140 ,1979-02-22 01:11:05.710 ,4,1,8.61,0.772,0.311,0.139,-1.00,-1.00,2.108E-02,2.108E-03
1979-02-22 01:11:06.140 ,1979-02-22 01:11:29.710 ,5,1,9.79,0.823,0.435,0.164,-1.00,-1.00,2.159E-02,2.057E-03
1979-02-22 01:11:30.140 ,1979-02-22 01:11:53.710 ,6,1,9.72,0.820,0.684,0.206,-1.00,-1.00,1.707E-02,1.830E-03
1979-02-22 01:11:54.140 ,1979-02-22 01:12:17.710 ,7,1,12.8,0.967,0.311,0.139,-1.00,-1.00,2.453E-02,2.192E-03
1979-02-22 01:12:18.140 ,1979-02-22 01:12:59.710 ,8,1,11.3,0.671,0.426,0.123,-1.00,-1.00,1.909E-02,1.503E-03
1979-02-22 01:12:59.770 ,1979-02-22 01:13:05.710 ,8,-1,11.3,1.73,0.000E+00,0.000E+00,-1.00,-1.00,2.276E-02,4.023E-03
1979-02-22 01:13:06.140 ,1979-02-22 01:13:29.710 ,7,-1,10.1,0.835,0.186,0.108,-1.00,-1.00,2.453E-02,2.192E-03
1979-02-22 01:13:30.140 ,1979-02-22 01:13:53.710 ,6,-1,9.58,0.814,0.559,0.186,-1.00,-1.00,2.480E-02,2.243E-03
1979-02-22 01:13:54.140 ,1979-02-22 01:14:17.710 ,5,-1,9.45,0.831,6.216E-02,6.216E-02,-1.00,-1.00,2.178E-02,2.066E-03
1979-02-22 01:14:18.140 ,1979-02-22 01:14:41.710 ,4,-1,8.61,0.772,0.435,0.164,-1.00,-1.00,2.012E-02,2.022E-03
1979-02-22 01:14:42.140 ,1979-02-22 01:15:05.710 ,3,-1,9.51,0.811,0.311,0.139,-1.00,-1.00,2.276E-02,2.148E-03
1979-02-22 01:15:06.140 ,1979-02-22 01:15:29.710 ,2,-1,9.99,0.832,0.124,8.790E-02,-1.00,-1.00,1.855E-02,1.977E-03
1979-02-22 01:15:29.770 ,1979-02-22 01:15:54.140 ,1,-1,7.91,1.32,0.746,0.249,-1.00,-1.00,1.537E-02,2.956E-03
1979-02-22 01:15:54.140 ,1979-02-22 01:16:17.710 ,1,1,9.92,0.830,0.559,0.186,-1.00,-1.00,2.394E-02,2.166E-03
1979-02-22 01:16:18.140 ,1979-02-22 01:16:41.710 ,2,1,10.1,0.835,0.435,0.164,-1.00,-1.00,2.073E-02,2.050E-03
1979-02-22 01:16:42.140 ,1979-02-22 01:17:05.710 ,3,1,8.95,0.788,0.373,0.152,-1.00,-1.00,2.129E-02,2.116E-03
1979-02-22 01:17:06.140 ,1979-02-22 01:17:29.710 ,4,1,7.29,0.710,0.435,0.164,-1.00,-1.00,2.073E-02,2.050E-03
1979-02-22 01:17:30.140 ,1979-02-22 01:17:53.710 ,5,1,9.96,0.853,0.497,0.176,-1.00,-1.00,2.414E-02,2.176E-03
1979-02-22 01:17:54.140 ,1979-02-22 01:18:17.710 ,6,1,11.2,0.882,0.497,0.176,-1.00,-1.00,2.036E-02,2.109E-03
1979-02-22 01:18:18.140 ,1979-02-22 01:18:41.710 ,7,1,11.9,0.908,0.186,0.108,-1.00,-1.00,2.337E-02,2.177E-03
1979-02-22 01:18:42.140 ,1979-02-22 01:19:23.710 ,8,1,11.2,0.677,0.568,0.142,-1.00,-1.00,2.172E-02,1.588E-03
1979-02-22 01:19:23.770 ,1979-02-22 01:19:29.710 ,8,-1,13.2,1.86,0.249,0.249,-1.00,-1.00,2.632E-02,4.327E-03
1979-02-22 01:19:30.140 ,1979-02-22 01:19:53.710 ,7,-1,11.2,0.905,0.622,0.196,-1.00,-1.00,2.093E-02,2.061E-03
1979-02-22 01:19:54.140 ,1979-02-22 01:20:17.710 ,6,-1,9.09,0.794,0.497,0.176,-1.00,-1.00,2.276E-02,2.113E-03
1979-02-22 01:20:18.140 ,1979-02-22 01:20:41.710 ,5,-1,10.5,0.855,6.216E-02,6.216E-02,-1.00,-1.00,2.335E-02,2.138E-03
1979-02-22 01:20:42.140 ,1979-02-22 01:21:05.710 ,4,-1,7.70,0.731,0.249,0.124,-1.00,-1.00,2.159E-02,2.057E-03
1979-02-22 01:21:06.140 ,1979-02-22 01:21:29.710 ,3,-1,10.7,0.860,0.249,0.124,-1.00,-1.00,2.414E-02,2.176E-03
1979-02-22 01:21:30.140 ,1979-02-22 01:21:53.710 ,2,-1,10.1,0.838,0.435,0.164,-1.00,-1.00,1.850E-02,1.936E-03
1979-02-22 01:21:53.770 ,1979-02-22 01:22:18.140 ,1,-1,11.5,1.47,0.332,0.166,-1.00,-1.00,2.276E-02,3.596E-03
1979-02-22 01:22:18.140 ,1979-02-22 01:22:41.710 ,1,1,10.9,0.868,0.622,0.196,-1.00,-1.00,2.053E-02,2.040E-03
1979-02-22 01:22:42.140 ,1979-02-22 01:23:05.710 ,2,1,9.99,0.832,0.373,0.152,-1.00,-1.00,2.213E-02,2.158E-03
1979-02-22 01:23:06.140 ,1979-02-22 01:23:29.710 ,3,1,10.3,0.844,0.435,0.164,-1.00,-1.00,2.093E-02,2.061E-03
1979-02-22 01:23:30.140 ,1979-02-22 01:23:53.710 ,4,1,8.81,0.781,0.373,0.152,-1.00,-1.00,2.073E-02,2.050E-03
1979-02-22 01:23:54.140 ,1979-02-22 01:24:17.710 ,5,1,9.96,0.853,0.249,0.124,-1.00,-1.00,2.159E-02,2.057E-03
1979-02-22 01:24:18.140 ,1979-02-22 01:24:41.710 ,6,1,11.0,0.872,0.373,0.152,-1.00,-1.00,2.215E-02,2.122E-03
1979-02-22 01:24:42.140 ,1979-02-22 01:25:05.710 ,7,1,12.0,0.912,0.746,0.215,-1.00,-1.00,2.002E-02,2.052E-03
1979-02-22 01:25:06.140 ,1979-02-22 01:25:47.710 ,8,1,11.1,0.664,0.568,0.142,-1.00,-1.00,2.172E-02,1.588E-03